STARLINK-34799, 65472

Orbit data source: Space-Track

STARLINK-34799, 65472 is a payload satellite owned by SpaceX/Seattle (US) in LEO that was launched on Wed, 03 Sep 2025 UTC via an FALCON 9 launch vehicle from the Air Force Eastern Test Range (AFETR). Payload-class satellites include a variety of spacecraft equipped with specific instruments for various scientific and technological missions. These include communications satellites like Starlink; space stations such as the ISS; scientific satellites like the Hubble; Earth observation satellites from companies like Planet Labs, Umbra, and HawkEye 360; GPS; miniature CubeSats for education and research; and military/defense satellites.

Loading next visibility...
Identifier
65472, 2025-195Q
Orbit
LEO
Country
Flag of USUS
Related business
Manufacturer
SpaceX/Seattle
Mission
Operational Commercial Communications
Bus & Motor
STARLINK V2MO, Unknown motor
Mass
575 kg wet, ~530 kg dry
Launch date (UTC)
2025-09-03 (10 months ago)
Launch vehicle
FALCON 9
Launch site
Air Force Eastern Test Range (AFETR)
Object type
Payload
Rocket body
Debris
Shape & HBR
Box + 2 Pan, 17.7 m
Radar Cross Section
36.964 m², Large (>1 m²)

Expand to show TLE details & history
Last TLE update: 19 hours ago

TLE from 19 hours ago
0 STARLINK-34799
1 65472U 25195Q   26171.19733341  .00009147  00000-0  28149-3 0  9992
2 65472  53.1578 140.9431 0000949  96.4931 263.6180 15.34401496 45687
Epoch: 2026-06-20T04:44Z
TLE epoch observation values (Epoch: 2026-06-20T04:44:09.606Z)
Latitude
Longitude
161.48766°
Altitude
463.672 km
Speed
7.636 km/s
True Right ascension
09h 23m 46s
True Declination
0° 00' 00"
Sunlit
Object was in daylight at epoch
Visualization orbit readout
Latitude
Unknown
Longitude
Unknown
Altitude
Unknown
Speed
Unknown
Apparent Right ascension
Unknown
Apparent Declination
Unknown
Sunlit
N/A
Visualization observer readout
Local Sidereal Time
10:18:37
Azimuth
Unknown
Elevation
Unknown
Doppler factor
Unknown
Orbital elements
Apogee altitude
463.605 km
Perigee altitude
462.307 km
Semi-major axis
6,841.093 km
Eccentricity
0.00009
Inclination
53.1578°
RAAN
140.9431°
Arg. of periapsis
96.4931°
True anomaly
263.60719°
Mean anomaly
263.618°
Eccentric anomaly
263.6126°
Mean motion
3.83579 °/min
Orbital period
93.85 mins
BSTAR
0.00028149
Loading maneuver chart data...
Computing Atmospheric mass density...
Loading historical data...
Loading historical data...
Loading historical data...
Loading historical data...
Loading historical data...
Loading historical data...
Loading historical data...

Documentation

Showing up to 5 results
|